パンスターズ彗星

C/2015 T2 ( PanSTARRS )

English version
Home page
Updated on September 17, 2019

---------------------------------------------------------------------

・ プロフィール

発見日 2015年10月9日
発見光度 21.8等
発見者 Pan-STARRS 1 telescope (Haleakala)

・ 写真集

・ 軌道要素

Epoch 2017 May 7.0 TT = JDT 2457880.5
T 2017 May 20.44870 TT                                  Williams
q   6.9353641            (2000.0)            P               Q
z  -0.0000518      Peri.   30.76248     +0.76567320     +0.05755601
 +/-0.0000008      Node    51.06043     +0.27838205     -0.92753082
e   1.0003590      Incl.  124.54724     +0.57986894     +0.36928834
From 194 observations 2015 Oct. 9-2019 Aug. 4, mean residual 0".4.

・ 光度変化

        m1 = 2.0 + 5 logΔ + 15.0 log r(t - 200)

---------------------------------------------------------------------

軌道要素はM.P.E.C. 2019-Q135に掲載されたものです。
光度グラフはComet for Windowsで作成したものです。

---------------------------------------------------------------------

Copyright(C) Seiichi Yoshida (comet@aerith.net). All rights reserved.